Time,TemperatureF,DewpointF,PressureIn,WindDirection,WindDirectionDegrees,WindSpeedMPH,WindSpeedGustMPH,Humidity,HourlyPrecipIn,Conditions,Clouds,dailyrainin,SoftwareType,DateUTC
2013-05-10 00:00:00,57.7,56.0,29.93,WNW,302,0.0,1.0,94,0.00,RA,,0.00,WeatherDisplay:10.37,2013-05-10 05:00:00,
2013-05-10 00:05:00,57.7,56.3,29.93,WNW,302,0.0,0.0,95,0.00,RA,,0.00,WeatherDisplay:10.37,2013-05-10 05:05:00,
2013-05-10 00:10:00,57.5,56.1,29.93,WNW,302,0.0,3.0,95,0.00,SCT,,0.00,WeatherDisplay:10.37,2013-05-10 05:10:00,
2013-05-10 00:15:00,57.4,56.0,29.93,WNW,302,1.0,4.0,95,0.00,SCT,,0.00,WeatherDisplay:10.37,2013-05-10 05:15:00,
2013-05-10 00:25:00,57.2,55.8,29.92,WNW,302,1.0,3.0,95,0.00,SCT,,0.00,WeatherDisplay:10.37,2013-05-10 05:25:00,
2013-05-10 00:30:00,57.2,55.8,29.93,WNW,302,1.0,4.0,95,0.00,SCT,,0.00,WeatherDisplay:10.37,2013-05-10 05:30:00,
2013-05-10 00:40:00,57.1,56.0,29.93,WNW,302,2.0,5.0,96,0.00,SCT,,0.00,WeatherDisplay:10.37,2013-05-10 05:40:00,
2013-05-10 00:45:00,57.2,56.1,29.93,WNW,292,2.0,5.0,96,0.00,SCT,,0.00,WeatherDisplay:10.37,2013-05-10 05:45:00,
2013-05-10 00:50:00,57.2,56.4,29.93,WNW,287,2.0,6.0,97,0.00,SCT,,0.00,WeatherDisplay:10.37,2013-05-10 05:50:00,
2013-05-10 01:00:00,57.2,56.1,29.93,WNW,286,2.0,5.0,96,0.00,SCT,,0.00,WeatherDisplay:10.37,2013-05-10 06:00:00,
2013-05-10 01:05:00,57.1,56.0,29.92,WNW,286,2.0,5.0,96,0.00,CLR,,0.00,WeatherDisplay:10.37,2013-05-10 06:05:00,
2013-05-10 01:10:00,57.1,56.0,29.92,WNW,286,1.0,4.0,96,0.00,CLR,,0.00,WeatherDisplay:10.37,2013-05-10 06:10:00,
2013-05-10 01:20:00,56.9,56.1,29.92,WNW,286,2.0,8.0,97,0.00,CLR,,0.00,WeatherDisplay:10.37,2013-05-10 06:20:00,
2013-05-10 01:25:00,56.8,56.0,29.92,WNW,288,2.0,5.0,97,0.00,CLR,,0.00,WeatherDisplay:10.37,2013-05-10 06:25:00,
2013-05-10 01:30:00,57.0,56.1,29.92,WNW,286,2.0,5.0,97,0.00,CLR,,0.00,WeatherDisplay:10.37,2013-05-10 06:30:00,
2013-05-10 01:40:00,56.9,56.1,29.91,WNW,290,2.0,6.0,97,0.00,CLR,,0.00,WeatherDisplay:10.37,2013-05-10 06:40:00,
2013-05-10 01:45:00,56.9,56.1,29.91,West,281,1.0,6.0,97,0.00,CLR,,0.00,WeatherDisplay:10.37,2013-05-10 06:45:00,
2013-05-10 01:50:00,56.9,56.1,29.91,West,279,2.0,4.0,97,0.00,CLR,,0.00,WeatherDisplay:10.37,2013-05-10 06:50:00,
2013-05-10 01:55:00,56.8,56.0,29.91,West,280,0.0,5.0,97,0.00,CLR,,0.00,WeatherDisplay:10.37,2013-05-10 06:55:00,
2013-05-10 02:00:00,56.8,56.0,29.91,WNW,282,1.0,8.0,97,0.00,CLR,,0.00,WeatherDisplay:10.37,2013-05-10 07:00:00,
2013-05-10 02:05:00,56.6,55.8,29.92,WNW,286,0.0,4.0,97,0.00,CLR,,0.00,WeatherDisplay:10.37,2013-05-10 07:05:00,
2013-05-10 02:10:00,56.6,55.8,29.92,WNW,292,0.0,4.0,97,0.00,CLR,,0.00,WeatherDisplay:10.37,2013-05-10 07:10:00,
2013-05-10 02:20:00,56.3,55.5,29.92,WNW,289,1.0,4.0,97,0.00,CLR,,0.00,WeatherDisplay:10.37,2013-05-10 07:20:00,
2013-05-10 02:30:00,56.2,55.4,29.92,WNW,289,0.0,5.0,97,0.00,CLR,,0.00,WeatherDisplay:10.37,2013-05-10 07:30:00,
2013-05-10 02:35:00,56.1,55.3,29.92,WNW,289,1.0,4.0,97,0.00,CLR,,0.00,WeatherDisplay:10.37,2013-05-10 07:35:00,
2013-05-10 02:40:00,56.1,55.2,29.92,WNW,289,0.0,4.0,97,0.00,CLR,,0.00,WeatherDisplay:10.37,2013-05-10 07:40:00,
2013-05-10 02:45:00,55.9,55.1,29.92,WNW,291,0.0,4.0,97,0.00,CLR,,0.00,WeatherDisplay:10.37,2013-05-10 07:45:00,
2013-05-10 02:50:00,55.7,54.9,29.92,WNW,292,0.0,4.0,97,0.00,CLR,,0.00,WeatherDisplay:10.37,2013-05-10 07:50:00,
2013-05-10 02:55:00,55.6,54.8,29.92,WNW,292,0.0,1.0,97,0.00,CLR,,0.00,WeatherDisplay:10.37,2013-05-10 07:55:00,
2013-05-10 03:00:00,55.6,54.8,29.92,WNW,292,0.0,3.0,97,0.00,CLR,,0.00,WeatherDisplay:10.37,2013-05-10 08:00:00,
2013-05-10 03:05:00,55.4,54.6,29.92,WNW,292,0.0,3.0,97,0.00,CLR,,0.00,WeatherDisplay:10.37,2013-05-10 08:05:00,
2013-05-10 03:10:00,55.3,54.5,29.92,WNW,292,1.0,3.0,97,0.00,CLR,,0.00,WeatherDisplay:10.37,2013-05-10 08:10:00,
2013-05-10 03:20:00,55.3,54.5,29.93,WNW,292,0.0,3.0,97,0.00,CLR,,0.00,WeatherDisplay:10.37,2013-05-10 08:20:00,
2013-05-10 03:30:00,55.2,54.3,29.93,WNW,292,0.0,1.0,97,0.00,CLR,,0.00,WeatherDisplay:10.37,2013-05-10 08:30:00,
2013-05-10 03:35:00,55.2,54.6,29.93,WNW,292,0.0,1.0,98,0.00,CLR,,0.00,WeatherDisplay:10.37,2013-05-10 08:35:00,
2013-05-10 03:40:00,55.1,54.6,29.92,WNW,292,0.0,1.0,98,0.00,CLR,,0.00,WeatherDisplay:10.37,2013-05-10 08:40:00,
2013-05-10 03:45:00,55.1,54.3,29.93,WNW,292,1.0,3.0,97,0.00,CLR,,0.00,WeatherDisplay:10.37,2013-05-10 08:45:00,
2013-05-10 03:50:00,55.0,54.2,29.93,WNW,292,1.0,4.0,97,0.00,CLR,,0.00,WeatherDisplay:10.37,2013-05-10 08:50:00,
2013-05-10 04:00:00,55.0,54.4,29.93,WNW,293,1.0,3.0,98,0.00,CLR,,0.00,WeatherDisplay:10.37,2013-05-10 09:00:00,
2013-05-10 04:05:00,55.2,54.9,29.93,WNW,299,1.0,4.0,99,0.00,BKN,,0.00,WeatherDisplay:10.37,2013-05-10 09:05:00,
2013-05-10 04:10:00,55.6,55.3,29.93,NNW,334,1.0,5.0,99,0.00,BKN,,0.00,WeatherDisplay:10.37,2013-05-10 09:10:00,
2013-05-10 04:20:00,55.9,55.6,29.93,NNW,336,0.0,4.0,99,0.00,BKN,,0.00,WeatherDisplay:10.37,2013-05-10 09:20:00,
2013-05-10 04:25:00,55.9,55.6,29.94,NNW,337,0.0,3.0,99,0.00,BKN,,0.00,WeatherDisplay:10.37,2013-05-10 09:25:00,
2013-05-10 04:30:00,55.7,55.4,29.93,NNW,336,1.0,4.0,99,0.00,BKN,,0.00,WeatherDisplay:10.37,2013-05-10 09:30:00,
2013-05-10 04:35:00,55.6,55.3,29.93,NNW,336,1.0,3.0,99,0.00,BKN,,0.00,WeatherDisplay:10.37,2013-05-10 09:35:00,
2013-05-10 04:40:00,55.5,55.2,29.93,NNW,336,0.0,3.0,99,0.00,BKN,,0.00,WeatherDisplay:10.37,2013-05-10 09:40:00,
2013-05-10 04:50:00,55.3,55.0,29.94,NNW,328,1.0,3.0,99,0.00,SCT,,0.00,WeatherDisplay:10.37,2013-05-10 09:50:00,
2013-05-10 04:55:00,55.5,55.2,29.94,NW,321,1.0,5.0,99,0.00,SCT,,0.00,WeatherDisplay:10.37,2013-05-10 09:55:00,
2013-05-10 05:00:00,55.6,55.3,29.94,NNW,333,0.0,5.0,99,0.00,SCT,,0.00,WeatherDisplay:10.37,2013-05-10 10:00:00,
2013-05-10 05:05:00,55.8,55.5,29.93,NNW,340,2.0,5.0,99,0.00,SCT,,0.00,WeatherDisplay:10.37,2013-05-10 10:05:00,
2013-05-10 05:10:00,55.7,55.4,29.93,NNW,340,1.0,5.0,99,0.00,SCT,,0.00,WeatherDisplay:10.37,2013-05-10 10:10:00,
2013-05-10 05:20:00,55.9,55.6,29.93,WNW,300,1.0,5.0,99,0.00,FEW,,0.00,WeatherDisplay:10.37,2013-05-10 10:20:00,
2013-05-10 05:30:00,55.9,55.6,29.94,NNW,346,2.0,9.0,99,0.00,BKN,,0.00,WeatherDisplay:10.37,2013-05-10 10:30:00,
2013-05-10 05:35:00,55.8,55.5,29.94,NNW,345,2.0,5.0,99,0.00,BKN,,0.00,WeatherDisplay:10.37,2013-05-10 10:35:00,
2013-05-10 05:40:00,55.8,55.5,29.94,NW,309,1.0,5.0,99,0.00,BKN,,0.00,WeatherDisplay:10.37,2013-05-10 10:40:00,
2013-05-10 05:50:00,55.6,55.3,29.94,North,8,0.0,6.0,99,0.00,BKN,,0.00,WeatherDisplay:10.37,2013-05-10 10:50:00,
2013-05-10 05:55:00,55.6,55.0,29.95,North,5,1.0,4.0,98,0.00,BKN,,0.00,WeatherDisplay:10.37,2013-05-10 10:55:00,
2013-05-10 06:00:00,55.5,54.9,29.95,NNE,12,1.0,4.0,98,0.00,BKN,,0.00,WeatherDisplay:10.37,2013-05-10 11:00:00,
2013-05-10 06:05:00,55.4,54.9,29.94,North,11,1.0,4.0,98,0.00,OVC,,0.00,WeatherDisplay:10.37,2013-05-10 11:05:00,
2013-05-10 06:10:00,55.3,54.7,29.94,North,2,0.0,5.0,98,0.00,OVC,,0.00,WeatherDisplay:10.37,2013-05-10 11:10:00,
2013-05-10 06:20:00,55.1,54.3,29.95,NNW,339,1.0,4.0,97,0.00,OVC,,0.00,WeatherDisplay:10.37,2013-05-10 11:20:00,
2013-05-10 06:30:00,54.9,54.0,29.94,NW,319,2.0,6.0,97,0.00,OVC,,0.00,WeatherDisplay:10.37,2013-05-10 11:30:00,
2013-05-10 06:40:00,54.6,53.8,29.95,NW,315,2.0,5.0,97,0.00,OVC,,0.00,WeatherDisplay:10.37,2013-05-10 11:40:00,
2013-05-10 06:50:00,54.3,53.5,29.95,NW,319,3.0,6.0,97,0.00,SCT,,0.00,WeatherDisplay:10.37,2013-05-10 11:50:00,
2013-05-10 06:55:00,54.3,53.5,29.95,NNW,334,2.0,6.0,97,0.00,SCT,,0.00,WeatherDisplay:10.37,2013-05-10 11:55:00,
2013-05-10 07:00:00,54.3,53.5,29.96,NNW,329,1.0,5.0,97,0.00,SCT,,0.00,WeatherDisplay:10.37,2013-05-10 12:00:00,
2013-05-10 07:10:00,54.6,53.7,29.96,NNW,346,2.0,5.0,97,0.00,CLR,,0.00,WeatherDisplay:10.37,2013-05-10 12:10:00,
2013-05-10 07:20:00,54.7,53.9,29.96,NNW,331,2.0,4.0,97,0.00,CLR,,0.00,WeatherDisplay:10.37,2013-05-10 12:20:00,
2013-05-10 07:30:00,54.7,53.6,29.96,NNW,327,1.0,10.0,96,0.00,OVC,,0.00,WeatherDisplay:10.37,2013-05-10 12:30:00,
2013-05-10 07:40:00,54.8,53.7,29.96,NNE,20,1.0,5.0,96,0.00,OVC,,0.00,WeatherDisplay:10.37,2013-05-10 12:40:00,
2013-05-10 07:50:00,55.1,53.7,29.97,NW,324,2.0,8.0,95,0.00,OVC,,0.00,WeatherDisplay:10.37,2013-05-10 12:50:00,
2013-05-10 08:00:00,55.4,54.0,29.97,NNW,331,1.0,9.0,95,0.00,OVC,,0.00,WeatherDisplay:10.37,2013-05-10 13:00:00,
2013-05-10 08:05:00,55.4,54.0,29.97,North,354,2.0,9.0,95,0.00,OVC,,0.00,WeatherDisplay:10.37,2013-05-10 13:05:00,
2013-05-10 08:10:00,55.6,54.2,29.98,North,354,2.0,6.0,95,0.00,OVC,,0.00,WeatherDisplay:10.37,2013-05-10 13:10:00,
2013-05-10 08:15:00,55.6,53.9,29.97,NNW,338,2.0,5.0,94,0.00,OVC,,0.00,WeatherDisplay:10.37,2013-05-10 13:15:00,
2013-05-10 08:20:00,55.4,53.7,29.97,NNW,347,1.0,6.0,94,0.00,OVC,,0.00,WeatherDisplay:10.37,2013-05-10 13:20:00,
2013-05-10 08:30:00,55.6,53.9,29.98,NW,325,2.0,6.0,94,0.00,OVC,,0.00,WeatherDisplay:10.37,2013-05-10 13:30:00,
2013-05-10 08:40:00,55.3,53.0,29.98,NNE,17,5.0,9.0,92,0.00,OVC,,0.00,WeatherDisplay:10.37,2013-05-10 13:40:00,
2013-05-10 08:50:00,55.0,52.7,29.98,NNW,347,2.0,5.0,92,0.00,OVC,,0.00,WeatherDisplay:10.37,2013-05-10 13:50:00,
2013-05-10 08:55:00,54.9,52.6,29.98,NNW,336,3.0,12.0,92,0.00,OVC,,0.00,WeatherDisplay:10.37,2013-05-10 13:55:00,
2013-05-10 09:00:00,54.9,52.6,29.98,NNW,330,2.0,6.0,92,0.00,OVC,,0.00,WeatherDisplay:10.37,2013-05-10 14:00:00,
2013-05-10 09:05:00,55.1,52.8,29.98,NNW,342,2.0,6.0,92,0.00,OVC,,0.00,WeatherDisplay:10.37,2013-05-10 14:05:00,
2013-05-10 09:10:00,55.5,53.2,29.98,North,356,2.0,6.0,92,0.00,OVC,,0.00,WeatherDisplay:10.37,2013-05-10 14:10:00,
2013-05-10 09:15:00,55.5,52.9,29.98,NNW,339,2.0,5.0,91,0.00,OVC,,0.00,WeatherDisplay:10.37,2013-05-10 14:15:00,
2013-05-10 09:20:00,55.6,52.7,29.98,NW,322,1.0,4.0,90,0.00,OVC,,0.00,WeatherDisplay:10.37,2013-05-10 14:20:00,
2013-05-10 09:30:00,55.7,52.8,29.99,NNE,18,1.0,5.0,90,0.00,OVC,,0.00,WeatherDisplay:10.37,2013-05-10 14:30:00,
2013-05-10 09:40:00,55.7,52.5,29.99,NNW,327,2.0,5.0,89,0.00,OVC,,0.00,WeatherDisplay:10.37,2013-05-10 14:40:00,
2013-05-10 09:45:00,55.7,52.8,30.00,NW,316,2.0,9.0,90,0.00,OVC,,0.00,WeatherDisplay:10.37,2013-05-10 14:45:00,
2013-05-10 09:50:00,55.7,52.5,30.00,NW,322,2.0,5.0,89,0.00,OVC,,0.00,WeatherDisplay:10.37,2013-05-10 14:50:00,
2013-05-10 10:00:00,55.6,52.4,30.00,NW,320,1.0,5.0,89,0.00,OVC,,0.00,WeatherDisplay:10.37,2013-05-10 15:00:00,
2013-05-10 10:10:00,55.4,52.5,30.01,NW,307,2.0,6.0,90,0.00,OVC,,0.00,WeatherDisplay:10.37,2013-05-10 15:10:00,
2013-05-10 10:20:00,55.3,52.4,30.02,North,358,1.0,5.0,90,0.00,OVC,,0.00,WeatherDisplay:10.37,2013-05-10 15:20:00,
2013-05-10 10:25:00,55.1,52.3,30.02,NNW,333,1.0,5.0,90,0.00,OVC,,0.00,WeatherDisplay:10.37,2013-05-10 15:25:00,
2013-05-10 10:30:00,55.0,52.2,30.02,NW,323,1.0,4.0,90,0.00,OVC,,0.00,WeatherDisplay:10.37,2013-05-10 15:30:00,
2013-05-10 10:40:00,55.3,52.4,30.03,NNW,328,1.0,4.0,90,0.00,OVC,,0.00,WeatherDisplay:10.37,2013-05-10 15:40:00,
2013-05-10 10:50:00,55.3,52.4,30.02,NNW,342,1.0,4.0,90,0.00,OVC,,0.00,WeatherDisplay:10.37,2013-05-10 15:50:00,
2013-05-10 11:00:00,55.6,52.7,30.03,NNW,344,1.0,6.0,90,0.00,OVC,,0.00,WeatherDisplay:10.37,2013-05-10 16:00:00,
2013-05-10 11:05:00,55.6,52.7,30.03,North,353,0.0,6.0,90,0.00,OVC,,0.00,WeatherDisplay:10.37,2013-05-10 16:05:00,
2013-05-10 11:10:00,55.6,52.7,30.03,NW,319,1.0,4.0,90,0.00,OVC,,0.00,WeatherDisplay:10.37,2013-05-10 16:10:00,
2013-05-10 11:20:00,55.4,52.5,30.03,NNW,327,2.0,5.0,90,0.00,OVC,,0.00,WeatherDisplay:10.37,2013-05-10 16:20:00,
2013-05-10 11:30:00,55.1,52.2,30.04,WNW,296,2.0,5.0,90,0.00,OVC,,0.00,WeatherDisplay:10.37,2013-05-10 16:30:00,
2013-05-10 11:40:00,55.1,51.9,30.03,WNW,301,2.0,5.0,89,0.00,OVC,,0.00,WeatherDisplay:10.37,2013-05-10 16:40:00,
2013-05-10 11:50:00,55.1,52.3,30.04,NE,39,1.0,6.0,90,0.00,OVC,,0.00,WeatherDisplay:10.37,2013-05-10 16:50:00,
2013-05-10 12:00:00,55.1,52.2,30.04,NW,318,1.0,4.0,90,0.00,OVC,,0.00,WeatherDisplay:10.37,2013-05-10 17:00:00,
2013-05-10 12:05:00,55.3,52.4,30.04,NW,320,1.0,5.0,90,0.00,OVC,,0.00,WeatherDisplay:10.37,2013-05-10 17:05:00,
2013-05-10 12:10:00,55.3,52.4,30.04,NW,309,0.0,6.0,90,0.00,OVC,,0.00,WeatherDisplay:10.37,2013-05-10 17:10:00,
2013-05-10 12:20:00,55.6,52.7,30.04,NW,317,1.0,5.0,90,0.00,OVC,,0.00,WeatherDisplay:10.37,2013-05-10 17:20:00,
2013-05-10 12:25:00,56.2,53.3,30.04,NW,317,2.0,5.0,90,0.00,OVC,,0.00,WeatherDisplay:10.37,2013-05-10 17:25:00,
2013-05-10 12:30:00,56.8,53.6,30.04,NNW,327,1.0,6.0,89,0.00,OVC,,0.00,WeatherDisplay:10.37,2013-05-10 17:30:00,
2013-05-10 12:40:00,58.0,54.2,30.04,NW,313,2.0,6.0,87,0.00,OVC,,0.00,WeatherDisplay:10.37,2013-05-10 17:40:00,
2013-05-10 12:50:00,58.3,53.5,30.04,North,351,2.0,6.0,84,0.00,OVC,,0.00,WeatherDisplay:10.37,2013-05-10 17:50:00,
2013-05-10 13:00:00,57.9,53.0,30.04,NW,319,1.0,5.0,84,0.00,OVC,,0.00,WeatherDisplay:10.37,2013-05-10 18:00:00,
2013-05-10 13:10:00,57.8,53.3,30.04,WNW,298,0.0,4.0,85,0.00,OVC,,0.00,WeatherDisplay:10.37,2013-05-10 18:10:00,
2013-05-10 13:20:00,58.4,53.6,30.04,NW,315,1.0,6.0,84,0.00,OVC,,0.00,WeatherDisplay:10.37,2013-05-10 18:20:00,
2013-05-10 13:30:00,58.3,53.2,30.03,NNW,333,0.0,5.0,83,0.00,OVC,,0.00,WeatherDisplay:10.37,2013-05-10 18:30:00,
2013-05-10 13:35:00,58.1,52.7,30.03,North,355,1.0,5.0,82,0.00,OVC,,0.00,WeatherDisplay:10.37,2013-05-10 18:35:00,
2013-05-10 13:40:00,58.1,53.0,30.03,NNW,340,3.0,6.0,83,0.00,OVC,,0.00,WeatherDisplay:10.37,2013-05-10 18:40:00,
2013-05-10 13:50:00,58.1,53.6,30.02,North,354,2.0,8.0,85,0.00,OVC,,0.00,WeatherDisplay:10.37,2013-05-10 18:50:00,
2013-05-10 14:00:00,58.9,53.4,30.03,NNW,328,3.0,9.0,82,0.00,OVC,,0.00,WeatherDisplay:10.37,2013-05-10 19:00:00,
2013-05-10 14:10:00,59.2,53.7,30.03,NW,309,1.0,5.0,82,0.00,OVC,,0.00,WeatherDisplay:10.37,2013-05-10 19:10:00,
2013-05-10 14:20:00,60.3,54.1,30.03,NNW,328,1.0,6.0,80,0.00,OVC,,0.00,WeatherDisplay:10.37,2013-05-10 19:20:00,
2013-05-10 14:30:00,60.6,53.7,30.02,NNW,338,2.0,6.0,78,0.00,OVC,,0.00,WeatherDisplay:10.37,2013-05-10 19:30:00,
2013-05-10 14:35:00,60.8,53.9,30.02,North,3,3.0,6.0,78,0.00,OVC,,0.00,WeatherDisplay:10.37,2013-05-10 19:35:00,
2013-05-10 14:40:00,61.1,53.4,30.02,North,7,2.0,6.0,76,0.00,OVC,,0.00,WeatherDisplay:10.37,2013-05-10 19:40:00,
2013-05-10 14:45:00,61.4,54.5,30.02,North,356,2.0,6.0,78,0.00,OVC,,0.00,WeatherDisplay:10.37,2013-05-10 19:45:00,
2013-05-10 14:50:00,61.5,53.8,30.02,NNW,330,3.0,9.0,76,0.00,OVC,,0.00,WeatherDisplay:10.37,2013-05-10 19:50:00,
2013-05-10 15:00:00,61.9,53.8,30.02,NNW,344,1.0,6.0,75,0.00,OVC,,0.00,WeatherDisplay:10.37,2013-05-10 20:00:00,
2013-05-10 15:05:00,61.5,53.5,30.02,NW,308,2.0,10.0,75,0.00,OVC,,0.00,WeatherDisplay:10.37,2013-05-10 20:05:00,
2013-05-10 15:10:00,61.6,54.3,30.02,WNW,299,3.0,10.0,77,0.00,OVC,,0.00,WeatherDisplay:10.37,2013-05-10 20:10:00,
2013-05-10 15:20:00,61.9,54.6,30.02,NNW,333,1.0,5.0,77,0.00,OVC,,0.00,WeatherDisplay:10.37,2013-05-10 20:20:00,
2013-05-10 15:30:00,62.2,54.2,30.02,NNW,333,3.0,9.0,75,0.00,OVC,,0.00,WeatherDisplay:10.37,2013-05-10 20:30:00,
2013-05-10 15:40:00,62.7,54.7,30.01,North,11,2.0,6.0,75,0.00,OVC,,0.00,WeatherDisplay:10.37,2013-05-10 20:40:00,
2013-05-10 15:50:00,63.3,54.5,30.01,North,359,3.0,9.0,73,0.00,OVC,,0.00,WeatherDisplay:10.37,2013-05-10 20:50:00,
2013-05-10 15:55:00,64.0,54.8,30.01,NNE,30,6.0,10.0,72,0.00,OVC,,0.00,WeatherDisplay:10.37,2013-05-10 20:55:00,
2013-05-10 16:00:00,64.4,54.8,30.01,NNE,20,3.0,14.0,71,0.00,OVC,,0.00,WeatherDisplay:10.37,2013-05-10 21:00:00,
2013-05-10 16:05:00,64.4,54.0,30.01,NNE,18,1.0,8.0,69,0.00,OVC,,0.00,WeatherDisplay:10.37,2013-05-10 21:05:00,
2013-05-10 16:10:00,64.1,53.3,30.01,NNE,14,5.0,8.0,68,0.00,OVC,,0.00,WeatherDisplay:10.37,2013-05-10 21:10:00,
2013-05-10 16:20:00,63.9,53.9,30.01,NNW,347,1.0,11.0,70,0.00,OVC,,0.00,WeatherDisplay:10.37,2013-05-10 21:20:00,
2013-05-10 16:30:00,64.3,54.7,30.00,NNW,328,1.0,6.0,71,0.00,OVC,,0.00,WeatherDisplay:10.37,2013-05-10 21:30:00,
2013-05-10 16:40:00,65.0,53.4,30.01,WNW,292,3.0,8.0,66,0.00,OVC,,0.00,WeatherDisplay:10.37,2013-05-10 21:40:00,
2013-05-10 16:45:00,64.7,53.5,30.00,NW,321,3.0,5.0,67,0.00,OVC,,0.00,WeatherDisplay:10.37,2013-05-10 21:45:00,
2013-05-10 16:50:00,64.7,53.5,30.00,NNE,18,2.0,5.0,67,0.00,OVC,,0.00,WeatherDisplay:10.37,2013-05-10 21:50:00,
2013-05-10 16:55:00,64.7,53.1,30.00,NE,34,2.0,8.0,66,0.00,OVC,,0.00,WeatherDisplay:10.37,2013-05-10 21:55:00,
2013-05-10 17:00:00,64.5,52.4,30.00,North,357,2.0,10.0,65,0.00,OVC,,0.00,WeatherDisplay:10.37,2013-05-10 22:00:00,
2013-05-10 17:05:00,64.7,53.0,30.00,NNW,340,0.0,6.0,66,0.00,OVC,,0.00,WeatherDisplay:10.37,2013-05-10 22:05:00,
2013-05-10 17:10:00,65.0,52.1,30.00,NNW,347,2.0,6.0,63,0.00,OVC,,0.00,WeatherDisplay:10.37,2013-05-10 22:10:00,
2013-05-10 17:15:00,64.9,52.4,30.00,NW,315,1.0,5.0,64,0.00,OVC,,0.00,WeatherDisplay:10.37,2013-05-10 22:15:00,
2013-05-10 17:20:00,65.1,53.0,30.00,WNW,297,1.0,4.0,65,0.00,OVC,,0.00,WeatherDisplay:10.37,2013-05-10 22:20:00,
2013-05-10 17:30:00,65.8,53.3,30.00,NW,322,2.0,6.0,64,0.00,OVC,,0.00,WeatherDisplay:10.37,2013-05-10 22:30:00,
2013-05-10 17:35:00,65.8,52.9,30.00,NNE,33,2.0,8.0,63,0.00,OVC,,0.00,WeatherDisplay:10.37,2013-05-10 22:35:00,
2013-05-10 17:40:00,66.2,52.4,30.00,NE,44,5.0,9.0,61,0.00,OVC,,0.00,WeatherDisplay:10.37,2013-05-10 22:40:00,
2013-05-10 17:50:00,67.0,53.5,30.00,NNE,25,2.0,6.0,62,0.00,OVC,,0.00,WeatherDisplay:10.37,2013-05-10 22:50:00,
2013-05-10 17:55:00,67.5,52.7,30.00,North,9,2.0,6.0,59,0.00,OVC,,0.00,WeatherDisplay:10.37,2013-05-10 22:55:00,
2013-05-10 18:05:00,67.8,52.9,30.00,North,357,5.0,8.0,59,0.00,SCT,,0.00,WeatherDisplay:10.37,2013-05-10 23:05:00,
2013-05-10 18:10:00,67.6,52.3,30.00,NNE,22,2.0,8.0,58,0.00,SCT,,0.00,WeatherDisplay:10.37,2013-05-10 23:10:00,
2013-05-10 18:20:00,67.7,51.4,30.00,NE,34,3.0,8.0,56,0.00,SCT,,0.00,WeatherDisplay:10.37,2013-05-10 23:20:00,
2013-05-10 18:30:00,67.3,51.1,30.00,North,7,3.0,10.0,56,0.00,SCT,,0.00,WeatherDisplay:10.37,2013-05-10 23:30:00,
2013-05-10 18:40:00,67.5,51.7,29.99,NNE,12,3.0,9.0,57,0.00,SCT,,0.00,WeatherDisplay:10.37,2013-05-10 23:40:00,
2013-05-10 18:50:00,67.1,50.4,29.99,NE,49,3.0,9.0,55,0.00,SCT,,0.00,WeatherDisplay:10.37,2013-05-10 23:50:00,
2013-05-10 19:00:00,66.6,49.9,29.99,NE,37,1.0,8.0,55,0.00,SCT,,0.00,WeatherDisplay:10.37,2013-05-11 00:00:00,
2013-05-10 19:05:00,66.5,49.8,29.99,NE,47,2.0,6.0,55,0.00,BKN,,0.00,WeatherDisplay:10.37,2013-05-11 00:05:00,
2013-05-10 19:10:00,66.2,50.0,29.99,NNW,346,1.0,5.0,56,0.00,BKN,,0.00,WeatherDisplay:10.37,2013-05-11 00:10:00,
2013-05-10 19:20:00,65.5,49.4,29.99,NE,39,1.0,8.0,56,0.00,BKN,,0.00,WeatherDisplay:10.37,2013-05-11 00:20:00,
2013-05-10 19:30:00,65.0,49.4,29.99,North,5,1.0,4.0,57,0.00,BKN,,0.00,WeatherDisplay:10.37,2013-05-11 00:30:00,
2013-05-10 19:40:00,64.5,50.3,29.99,North,4,0.0,1.0,60,0.00,BKN,,0.00,WeatherDisplay:10.37,2013-05-11 00:40:00,
2013-05-10 19:45:00,64.2,50.4,29.99,North,4,0.0,3.0,61,0.00,BKN,,0.00,WeatherDisplay:10.37,2013-05-11 00:45:00,
2013-05-10 19:50:00,63.7,50.5,29.99,North,4,0.0,1.0,62,0.00,BKN,,0.00,WeatherDisplay:10.37,2013-05-11 00:50:00,
2013-05-10 20:00:00,62.9,50.1,29.99,North,4,0.0,0.0,63,0.00,BKN,,0.00,WeatherDisplay:10.37,2013-05-11 01:00:00,
2013-05-10 20:05:00,62.3,50.0,30.00,North,4,0.0,0.0,64,0.00,CLR,,0.00,WeatherDisplay:10.37,2013-05-11 01:05:00,
2013-05-10 20:10:00,61.8,49.9,30.00,North,4,0.0,0.0,65,0.00,CLR,,0.00,WeatherDisplay:10.37,2013-05-11 01:10:00,
2013-05-10 20:20:00,60.6,50.0,29.99,North,4,0.0,0.0,68,0.00,CLR,,0.00,WeatherDisplay:10.37,2013-05-11 01:20:00,
2013-05-10 20:30:00,59.5,50.0,30.00,North,4,0.0,1.0,71,0.00,CLR,,0.00,WeatherDisplay:10.37,2013-05-11 01:30:00,
2013-05-10 20:40:00,58.6,49.9,30.00,North,4,0.0,0.0,73,0.00,CLR,,0.00,WeatherDisplay:10.37,2013-05-11 01:40:00,
2013-05-10 20:50:00,57.5,50.0,30.00,North,4,0.0,0.0,76,0.00,CLR,,0.00,WeatherDisplay:10.37,2013-05-11 01:50:00,
2013-05-10 21:00:00,56.6,49.9,30.01,North,4,0.0,0.0,78,0.00,CLR,,0.00,WeatherDisplay:10.37,2013-05-11 02:00:00,
2013-05-10 21:05:00,56.2,49.4,30.01,North,4,0.0,0.0,78,0.00,CLR,,0.00,WeatherDisplay:10.37,2013-05-11 02:05:00,
2013-05-10 21:10:00,55.8,49.3,30.01,North,4,0.0,0.0,79,0.00,CLR,,0.00,WeatherDisplay:10.37,2013-05-11 02:10:00,
2013-05-10 21:15:00,55.5,49.4,30.01,North,4,0.0,0.0,80,0.00,CLR,,0.00,WeatherDisplay:10.37,2013-05-11 02:15:00,
2013-05-10 21:25:00,54.8,49.1,30.02,North,4,0.0,0.0,81,0.00,CLR,,0.00,WeatherDisplay:10.37,2013-05-11 02:25:00,
2013-05-10 21:30:00,54.5,49.1,30.02,North,4,0.0,0.0,82,0.00,CLR,,0.00,WeatherDisplay:10.37,2013-05-11 02:30:00,
2013-05-10 21:35:00,54.2,48.9,30.02,North,4,0.0,0.0,82,0.00,CLR,,0.00,WeatherDisplay:10.37,2013-05-11 02:35:00,
2013-05-10 21:45:00,53.9,48.8,30.02,North,4,0.0,0.0,83,0.00,CLR,,0.00,WeatherDisplay:10.37,2013-05-11 02:45:00,
2013-05-10 21:50:00,53.6,48.8,30.02,North,4,0.0,0.0,84,0.00,CLR,,0.00,WeatherDisplay:10.37,2013-05-11 02:50:00,
2013-05-10 21:55:00,53.4,49.0,30.03,North,4,0.0,0.0,85,0.00,CLR,,0.00,WeatherDisplay:10.37,2013-05-11 02:55:00,
2013-05-10 22:05:00,53.0,49.0,30.03,North,4,0.0,0.0,86,0.00,CLR,,0.00,WeatherDisplay:10.37,2013-05-11 03:05:00,
2013-05-10 22:10:00,52.9,48.8,30.03,North,4,0.0,0.0,86,0.00,CLR,,0.00,WeatherDisplay:10.37,2013-05-11 03:10:00,
2013-05-10 22:15:00,52.8,49.0,30.03,North,4,0.0,0.0,87,0.00,CLR,,0.00,WeatherDisplay:10.37,2013-05-11 03:15:00,
2013-05-10 22:25:00,52.5,48.7,30.04,North,4,0.0,0.0,87,0.00,CLR,,0.00,WeatherDisplay:10.37,2013-05-11 03:25:00,
2013-05-10 22:30:00,52.4,48.6,30.04,North,4,0.0,0.0,87,0.00,CLR,,0.00,WeatherDisplay:10.37,2013-05-11 03:30:00,
2013-05-10 22:35:00,52.3,48.6,30.04,North,4,0.0,0.0,87,0.00,CLR,,0.00,WeatherDisplay:10.37,2013-05-11 03:35:00,
2013-05-10 22:45:00,52.1,48.7,30.04,North,4,0.0,3.0,88,0.00,CLR,,0.00,WeatherDisplay:10.37,2013-05-11 03:45:00,
2013-05-10 22:50:00,52.0,48.5,30.04,North,4,0.0,0.0,88,0.00,CLR,,0.00,WeatherDisplay:10.37,2013-05-11 03:50:00,
2013-05-10 22:55:00,51.9,48.5,30.04,North,4,0.0,0.0,88,0.00,CLR,,0.00,WeatherDisplay:10.37,2013-05-11 03:55:00,
2013-05-10 23:05:00,51.7,48.5,30.04,North,4,0.0,0.0,89,0.00,CLR,,0.00,WeatherDisplay:10.37,2013-05-11 04:05:00,
2013-05-10 23:10:00,51.5,48.1,30.04,North,4,0.0,0.0,88,0.00,CLR,,0.00,WeatherDisplay:10.37,2013-05-11 04:10:00,
2013-05-10 23:15:00,51.3,48.2,30.04,North,4,0.0,0.0,89,0.00,CLR,,0.00,WeatherDisplay:10.37,2013-05-11 04:15:00,
2013-05-10 23:20:00,51.2,48.4,30.04,North,4,0.0,0.0,90,0.00,CLR,,0.00,WeatherDisplay:10.37,2013-05-11 04:20:00,
2013-05-10 23:25:00,51.0,48.1,30.04,North,4,0.0,0.0,90,0.00,CLR,,0.00,WeatherDisplay:10.37,2013-05-11 04:25:00,
2013-05-10 23:30:00,50.9,48.1,30.04,North,4,0.0,0.0,90,0.00,CLR,,0.00,WeatherDisplay:10.37,2013-05-11 04:30:00,
2013-05-10 23:35:00,50.8,48.0,30.04,North,4,0.0,0.0,90,0.00,CLR,,0.00,WeatherDisplay:10.37,2013-05-11 04:35:00,
2013-05-10 23:45:00,50.5,48.0,30.04,North,4,0.0,0.0,91,0.00,CLR,,0.00,WeatherDisplay:10.37,2013-05-11 04:45:00,
2013-05-10 23:50:00,50.3,47.8,30.04,North,4,0.0,0.0,91,0.00,CLR,,0.00,WeatherDisplay:10.37,2013-05-11 04:50:00,
2013-05-10 23:55:00,50.3,48.1,30.04,North,4,0.0,0.0,92,0.00,CLR,,0.00,WeatherDisplay:10.37,2013-05-11 04:55:00,